East Milton, MA

11:15 PM EDT on March 24, 2017 (GMT -0400)
East Milton

Weather History for KMQE - April, 2013

Change the Weather History Date:

Friday, April 12, 2013

  Actual Average (KOWD) Record (KOWD)
Temperature  
Mean Temperature 37 °F -  
Max Temperature 39 °F 56 °F 73 °F (2008)
Min Temperature 35 °F 34 °F 27 °F (2002)
Degree Days  
Heating Degree Days 28    
Moisture  
Dew Point 34 °F    
Average Humidity 88    
Maximum Humidity 97    
Minimum Humidity 65    
Precipitation  
Precipitation 0.59 in - - ()
Sea Level Pressure  
Sea Level Pressure 30.02 in    
Wind  
Wind Speed 13 mph (ENE)    
Max Wind Speed 21 mph    
Max Gust Speed 38 mph    
Averages and records for this station are not official NWS values.
T = Trace of Precipitation, MM = Missing Value Source: NWS Daily Summary

Daily Weather History Graph

Daily Weather History Graph

Search for Another Location

Airport or City:

Trip Planner

Search our weather history database for the weather conditions in past years. The results will help you decide how hot, cold, wet, or windy it might be!

Date:

Astronomy

Apr. 12, 2013 Rise Set
Actual Time 6:08 AM EDT 7:22 PM EDT
Civil Twilight 5:39 AM EDT 7:51 PM EDT
Nautical Twilight 5:04 AM EDT 8:26 PM EDT
Astronomical Twilight 4:28 AM EDT 9:03 PM EDT
Moon 7:13 AM EDT (4/12) 9:53 PM EDT (4/12)
Length of Visible Light 14h 12m
Length of Day
13h 14m
Waxing Crescent, 5% of the Moon is Illuminated
Apr 12
Waxing Crescent
Apr 18
First Quarter
Apr 25
Full
May 2
Last Quarter
May 9
New

Hourly Weather History & Observations

Time (EDT) Temp. Windchill Dew Point Humidity Pressure Visibility Wind Dir Wind Speed Gust Speed Precip Events Conditions
12:54 AM 39.9 °F 35.8 °F 37.0 °F 89% 30.18 in - ENE 5.8 mph - 0.03 in   Unknown
1:54 AM 37.9 °F 31.5 °F 36.0 °F 93% 30.15 in - East 9.2 mph - 0.06 in   Unknown
2:54 AM 37.0 °F 30.4 °F 35.1 °F 93% 30.15 in - ENE 9.2 mph - 0.08 in   Unknown
3:54 AM 37.0 °F 29.8 °F 35.1 °F 93% 30.16 in - ENE 10.4 mph - N/A   Unknown
4:54 AM 37.0 °F 28.5 °F 34.0 °F 89% 30.16 in - East 13.8 mph 24.2 mph N/A   Unknown
5:54 AM 37.0 °F 28.1 °F 30.9 °F 79% 30.15 in - East 15.0 mph 21.9 mph N/A   Unknown
6:54 AM 37.0 °F 27.4 °F 33.1 °F 86% 30.16 in - East 17.3 mph 20.7 mph N/A   Unknown
7:54 AM 37.9 °F 27.9 °F 28.9 °F 70% 30.15 in - East 19.6 mph 28.8 mph N/A   Unknown
8:54 AM 37.9 °F 27.6 °F 28.9 °F 70% 30.15 in - East 20.7 mph 32.2 mph N/A   Unknown
9:54 AM 37.9 °F 28.2 °F 27.0 °F 65% 30.11 in - East 18.4 mph 38.0 mph N/A   Unknown
10:54 AM 37.9 °F 29.2 °F 30.0 °F 73% 30.08 in - East 15.0 mph 31.1 mph N/A   Unknown
11:54 AM 37.9 °F 30.9 °F 32.0 °F 79% 30.07 in - East 10.4 mph 23.0 mph N/A   Unknown
12:54 PM 36.0 °F 26.0 °F 33.1 °F 89% 30.05 in - East 17.3 mph 26.5 mph 0.07 in   Unknown
1:54 PM 35.1 °F 26.4 °F 33.1 °F 92% 30.02 in - East 12.7 mph 23.0 mph 0.13 in   Unknown
2:54 PM 35.1 °F 25.5 °F 33.1 °F 92% 30.00 in - East 15.0 mph 21.9 mph 0.04 in   Unknown
3:54 PM 36.0 °F 26.7 °F 34.0 °F 93% 29.93 in - East 15.0 mph 25.3 mph 0.04 in   Unknown
4:54 PM 36.0 °F 28.0 °F 34.0 °F 93% 29.92 in - East 11.5 mph 19.6 mph N/A   Unknown
5:54 PM 36.0 °F 26.3 °F 35.1 °F 97% 29.89 in - ENE 16.1 mph 26.5 mph 0.02 in   Unknown
6:54 PM 37.0 °F 27.7 °F 35.1 °F 93% 29.86 in - ENE 16.1 mph 28.8 mph 0.05 in   Unknown
7:54 PM 37.0 °F 27.4 °F 36.0 °F 96% 29.83 in - ENE 17.3 mph 25.3 mph 0.01 in   Unknown
8:54 PM 37.0 °F 27.4 °F 36.0 °F 96% 29.82 in - NE 17.3 mph 31.1 mph 0.02 in   Unknown
9:54 PM 37.0 °F 27.0 °F 36.0 °F 96% 29.81 in - NE 18.4 mph 32.2 mph 0.01 in   Unknown
10:54 PM 37.0 °F 27.7 °F 36.0 °F 96% 29.79 in - NE 16.1 mph 32.2 mph 0.02 in   Unknown
11:54 PM 37.0 °F 28.1 °F 36.0 °F 96% 29.79 in - NE 15.0 mph 29.9 mph 0.01 in   Unknown